Change the Weather History Date:

Friday, October 5, 2012

  Actual Average (KLOT) Record (KLOT)
Temperature  
Mean Temperature 42 °F 57 °F  
Max Temperature 47 °F 68 °F 87 °F (2007)
Min Temperature 37 °F 46 °F 31 °F (2004)
Degree Days  
Heating Degree Days 23 9  
Month to date heating degree days 42  
Since 1 July heating degree days 141  
Cooling Degree Days 0 1  
Month to date cooling degree days 5  
Year to date cooling degree days 852  
Moisture  
Dew Point 36 °F    
Average Humidity 73    
Maximum Humidity 99    
Minimum Humidity 51    
Precipitation  
Precipitation 0.02 in 0.11 in 1.13 in (2013)
Month to date precipitation 0.55  
Year to date precipitation 31.50  
Snow  
Snow 0.00 in 0.00 in - ()
Month to date snowfall 0.0  
Since 1 July snowfall 0.0  
Since 1 September snowfall 0.0  
Snow Depth -    
Sea Level Pressure  
Sea Level Pressure 30.13 in    
Wind  
Wind Speed 7 mph (West)    
Max Wind Speed 14 mph    
Max Gust Speed 17 mph    
Visibility 10 miles    
Events Rain    
T = Trace of Precipitation, MM = Missing Value Source: NWS Daily Summary

Daily Weather History Graph

Daily Weather History Graph

Search for Another Location

Airport or City:

Trip Planner

Search our weather history database for the weather conditions in past years. The results will help you decide how hot, cold, wet, or windy it might be!

Date:

Astronomy

Oct. 05, 2012 Rise Set
Actual Time 6:55 AM CDT 6:27 PM CDT
Civil Twilight 6:27 AM CDT 6:55 PM CDT
Nautical Twilight 5:55 AM CDT 7:27 PM CDT
Astronomical Twilight 5:23 AM CDT 7:59 PM CDT
Moon 9:48 PM CDT (10/5) 12:05 PM CDT (10/5)
Length of Visible Light 12h 27m
Length of Day
11h 32m
Waning Gibbous, 74% of the Moon is Illuminated
Oct 5
Waning Gibbous
Oct 8
Last Quarter
Oct 15
New
Oct 21
First Quarter
Oct 29
Full

Hourly Weather History & Observations

Time (CDT) Temp. Windchill Dew Point Humidity Pressure Visibility Wind Dir Wind Speed Gust Speed Precip Events Conditions
12:15 AM 46.2 °F 43.3 °F 43.9 °F 92% 30.13 in 10.0 mi West 5.8 mph - N/A   Clear
12:35 AM 45.5 °F 44.2 °F 44.2 °F 95% 30.12 in 10.0 mi West 3.5 mph - N/A   Clear
12:55 AM 45.0 °F 43.5 °F 43.7 °F 95% 30.12 in 10.0 mi West 3.5 mph - N/A   Clear
1:15 AM 43.2 °F 41.5 °F 42.8 °F 99% 30.14 in 10.0 mi SW 3.5 mph - N/A   Clear
1:35 AM 44.4 °F 42.0 °F 44.2 °F 99% 30.16 in 10.0 mi SW 4.6 mph - N/A   Clear
1:55 AM 45.7 °F 41.5 °F 44.8 °F 97% 30.18 in 10.0 mi WSW 8.1 mph - N/A   Clear
2:15 AM 46.0 °F 43.1 °F 44.2 °F 93% 30.19 in 10.0 mi WSW 5.8 mph - N/A   Clear
2:35 AM 46.6 °F - 43.0 °F 87% 30.18 in 10.0 mi WNW 5.8 mph - N/A   Scattered Clouds
2:55 AM 46.4 °F 44.3 °F 43.0 °F 88% 30.16 in 10.0 mi WNW 4.6 mph - N/A Rain Light Rain
3:15 AM 46.0 °F 44.8 °F 41.9 °F 85% 30.16 in 10.0 mi NW 3.5 mph - N/A   Clear
3:35 AM 45.5 °F 44.2 °F 41.0 °F 84% 30.15 in 10.0 mi WNW 3.5 mph - N/A   Clear
3:55 AM 45.1 °F 42.8 °F 41.7 °F 88% 30.16 in 10.0 mi WNW 4.6 mph - N/A   Clear
4:15 AM 45.0 °F 43.5 °F 39.6 °F 81% 30.16 in 10.0 mi NW 3.5 mph - N/A   Clear
4:35 AM 44.8 °F 42.4 °F 37.9 °F 77% 30.17 in 10.0 mi West 4.6 mph - N/A   Clear
4:55 AM 44.6 °F 42.2 °F 38.1 °F 78% 30.16 in 10.0 mi West 4.6 mph - N/A   Clear
5:15 AM 44.4 °F 42.9 °F 38.8 °F 81% 30.17 in 10.0 mi SW 3.5 mph - N/A   Clear
5:35 AM 44.6 °F 41.4 °F 38.3 °F 79% 30.17 in 10.0 mi West 5.8 mph - N/A   Scattered Clouds
5:55 AM 44.4 °F 41.2 °F 38.3 °F 79% 30.17 in 10.0 mi West 5.8 mph - N/A   Scattered Clouds
6:15 AM 44.1 °F 42.5 °F 37.8 °F 78% 30.16 in 10.0 mi West 3.5 mph - N/A   Clear
6:35 AM 43.0 °F 40.3 °F 38.5 °F 84% 30.16 in 10.0 mi WNW 4.6 mph - N/A   Clear
6:55 AM 42.8 °F 40.1 °F 37.8 °F 82% 30.16 in 10.0 mi WNW 4.6 mph - N/A   Clear
7:15 AM 42.1 °F 38.4 °F 37.4 °F 83% 30.16 in 10.0 mi WNW 5.8 mph - N/A   Clear
7:35 AM 42.8 °F 39.3 °F 36.9 °F 80% 30.17 in 10.0 mi West 5.8 mph - N/A   Clear
7:55 AM 42.4 °F 38.8 °F 36.0 °F 78% 30.18 in 10.0 mi WSW 5.8 mph - N/A   Clear
8:15 AM 42.8 °F 41.1 °F 37.4 °F 81% 30.18 in 10.0 mi West 3.5 mph - N/A   Clear
8:35 AM 43.7 °F 40.3 °F 36.0 °F 74% 30.17 in 10.0 mi West 5.8 mph - N/A   Scattered Clouds
8:55 AM 43.9 °F 39.9 °F 35.4 °F 72% 30.16 in 10.0 mi WNW 6.9 mph - N/A   Scattered Clouds
9:15 AM 44.6 °F 40.7 °F 35.6 °F 71% 30.18 in 10.0 mi WNW 6.9 mph - N/A   Scattered Clouds
9:35 AM 45.0 °F 39.7 °F 35.1 °F 68% 30.17 in 10.0 mi WNW 10.4 mph 17.3 mph N/A   Scattered Clouds
9:55 AM 45.1 °F 39.5 °F 34.9 °F 67% 30.17 in 10.0 mi WNW 11.5 mph - N/A   Scattered Clouds
10:15 AM 45.0 °F 40.6 °F 34.0 °F 65% 30.16 in 10.0 mi NW 8.1 mph - N/A   Mostly Cloudy
10:35 AM 44.1 °F 39.0 °F 35.4 °F 72% 30.16 in 10.0 mi WNW 9.2 mph - N/A Rain Light Rain
10:55 AM 44.4 °F 39.5 °F 36.5 °F 74% 30.17 in 10.0 mi WNW 9.2 mph - 0.01 in Rain Light Rain
11:15 AM 44.6 °F 41.4 °F 37.4 °F 76% 30.16 in 10.0 mi West 5.8 mph - N/A Rain Light Rain
11:35 AM 44.8 °F 40.4 °F 37.2 °F 75% 30.16 in 10.0 mi West 8.1 mph - N/A   Clear
11:55 AM 44.6 °F 41.4 °F 38.5 °F 79% 30.15 in 10.0 mi WSW 5.8 mph - 0.01 in Rain Light Rain
12:15 PM 45.1 °F 41.4 °F 37.9 °F 76% 30.14 in 10.0 mi West 6.9 mph - N/A   Mostly Cloudy
12:35 PM 45.9 °F 41.7 °F 37.9 °F 74% 30.14 in 10.0 mi WSW 8.1 mph - N/A   Mostly Cloudy
12:55 PM 46.4 °F 41.5 °F 38.1 °F 73% 30.14 in 10.0 mi WSW 10.4 mph - N/A   Scattered Clouds
1:15 PM 46.4 °F 42.9 °F 39.2 °F 76% 30.12 in 10.0 mi WSW 6.9 mph - N/A   Mostly Cloudy
1:35 PM 46.0 °F 43.9 °F 38.7 °F 75% 30.10 in 10.0 mi WSW 4.6 mph - N/A   Mostly Cloudy
1:55 PM 46.8 °F - 35.8 °F 66% 30.11 in 10.0 mi West 10.4 mph - N/A Rain Light Rain
2:15 PM 46.8 °F - 34.9 °F 63% 30.11 in 10.0 mi West 10.4 mph - N/A Rain Light Rain
2:35 PM 46.8 °F - 34.5 °F 62% 30.12 in 10.0 mi West 11.5 mph - N/A   Clear
2:55 PM 46.6 °F - 34.5 °F 63% 30.11 in 10.0 mi West 9.2 mph - N/A   Scattered Clouds
3:15 PM 46.4 °F 41.5 °F 35.1 °F 65% 30.11 in 10.0 mi West 10.4 mph - N/A   Clear
3:35 PM 46.4 °F 41.9 °F 35.4 °F 66% 30.09 in 10.0 mi West 9.2 mph - N/A   Clear
3:55 PM 45.9 °F 40.8 °F 36.5 °F 70% 30.10 in 10.0 mi West 10.4 mph - N/A Rain Light Rain
4:15 PM 46.0 °F 41.4 °F 37.2 °F 71% 30.10 in 10.0 mi West 9.2 mph - N/A   Scattered Clouds
4:35 PM 46.9 °F - 37.2 °F 69% 30.09 in 10.0 mi West 10.4 mph - N/A   Scattered Clouds
4:55 PM 47.3 °F - 36.9 °F 67% 30.09 in 10.0 mi West 10.4 mph - N/A   Mostly Cloudy
5:15 PM 47.3 °F - 33.8 °F 59% 30.10 in 10.0 mi West 12.7 mph 17.3 mph N/A   Overcast
5:35 PM 47.3 °F - 32.5 °F 57% 30.09 in 10.0 mi West 8.1 mph - N/A   Mostly Cloudy
5:55 PM 46.6 °F - 34.2 °F 62% 30.09 in 10.0 mi WSW 9.2 mph - N/A   Mostly Cloudy
6:15 PM 46.4 °F 41.1 °F 33.3 °F 60% 30.09 in 10.0 mi West 11.5 mph - N/A   Mostly Cloudy
6:35 PM 45.9 °F 41.7 °F 33.8 °F 63% 30.09 in 10.0 mi West 8.1 mph - N/A   Scattered Clouds
6:55 PM 45.5 °F 40.8 °F 32.9 °F 61% 30.09 in 10.0 mi West 9.2 mph - N/A   Scattered Clouds
7:15 PM 45.0 °F 39.7 °F 32.7 °F 62% 30.09 in 10.0 mi West 10.4 mph - N/A   Scattered Clouds
7:35 PM 45.0 °F 38.5 °F 30.4 °F 57% 30.09 in 10.0 mi WNW 13.8 mph - N/A   Mostly Cloudy
7:55 PM 45.3 °F 39.0 °F 28.2 °F 51% 30.09 in 10.0 mi WNW 13.8 mph - N/A   Overcast
8:15 PM 44.8 °F 39.9 °F 29.1 °F 54% 30.10 in 10.0 mi WNW 9.2 mph - N/A   Overcast
8:35 PM 44.6 °F 39.7 °F 29.8 °F 56% 30.10 in 10.0 mi WNW 9.2 mph - N/A   Overcast
8:55 PM 44.4 °F 39.0 °F 28.9 °F 55% 30.10 in 10.0 mi WNW 10.4 mph - N/A   Overcast
9:15 PM 43.3 °F 39.2 °F 29.8 °F 59% 30.10 in 10.0 mi West 6.9 mph - N/A   Overcast
9:35 PM 42.4 °F 37.5 °F 29.8 °F 61% 30.10 in 10.0 mi West 8.1 mph - N/A   Overcast
9:55 PM 41.7 °F 36.7 °F 29.5 °F 62% 30.10 in 10.0 mi West 8.1 mph - N/A   Mostly Cloudy
10:15 PM 40.1 °F 34.7 °F 29.3 °F 65% 30.10 in 10.0 mi West 8.1 mph - N/A   Scattered Clouds
10:35 PM 38.5 °F 32.7 °F 29.3 °F 70% 30.10 in 10.0 mi West 8.1 mph - N/A   Clear
10:55 PM 38.5 °F 31.6 °F 29.8 °F 71% 30.10 in 10.0 mi West 10.4 mph - N/A   Clear
11:15 PM 37.9 °F 30.9 °F 29.8 °F 73% 30.10 in 10.0 mi West 10.4 mph - N/A   Clear
11:35 PM 37.2 °F 30.0 °F 30.0 °F 75% 30.10 in 10.0 mi West 10.4 mph - N/A   Clear
11:55 PM 37.4 °F 30.3 °F 30.0 °F 75% 30.10 in 10.0 mi West 10.4 mph - N/A   Clear